White Plains, CT

6:04 PM EDT on May 26, 2017 (GMT -0400)
Westchester County

Weather History for KHPN - December, 2013

Change the Weather History Date:

Thursday, December 19, 2013

  Actual Average Record
Temperature  
Mean Temperature 34 °F -  
Max Temperature 43 °F 39 °F 49 °F (1990)
Min Temperature 25 °F 26 °F 10 °F (1989)
Degree Days  
Heating Degree Days 31    
Moisture  
Dew Point 21 °F    
Average Humidity 58    
Maximum Humidity 73    
Minimum Humidity 42    
Precipitation  
Precipitation 0.00 in - - ()
Sea Level Pressure  
Sea Level Pressure 30.11 in    
Wind  
Wind Speed 5 mph (WSW)    
Max Wind Speed 10 mph    
Max Gust Speed -    
Visibility 10 miles    
Events      
Averages and records for this station are not official NWS values.
T = Trace of Precipitation, MM = Missing Value Source: NWS Daily Summary

Daily Weather History Graph

Daily Weather History Graph

Search for Another Location

Airport or City:

Trip Planner

Search our weather history database for the weather conditions in past years. The results will help you decide how hot, cold, wet, or windy it might be!

Date:

Astronomy

Dec. 19, 2013 Rise Set
Actual Time 7:15 AM EST 4:28 PM EST
Civil Twilight 6:44 AM EST 4:59 PM EST
Nautical Twilight 6:09 AM EST 5:34 PM EST
Astronomical Twilight 5:36 AM EST 6:08 PM EST
Moon 6:53 PM EST (12/19) 8:31 AM EST (12/19)
Length of Visible Light 10h 15m
Length of Day
9h 13m
Waning Gibbous, 95% of the Moon is Illuminated
Dec 19
Waning Gibbous
Dec 25
Last Quarter
Jan 1
New
Jan 7
First Quarter
Jan 15
Full

Hourly Weather History & Observations

Time (EST) Temp. Windchill Dew Point Humidity Pressure Visibility Wind Dir Wind Speed Gust Speed Precip Events Conditions
12:56 AM 28.0 °F 20.8 °F 16.0 °F 61% 30.17 in 10.0 mi West 6.9 mph - N/A   Clear
1:56 AM 28.0 °F 21.7 °F 16.0 °F 61% 30.16 in 10.0 mi WSW 5.8 mph - N/A   Clear
2:56 AM 27.0 °F 20.5 °F 16.0 °F 63% 30.18 in 10.0 mi West 5.8 mph - N/A   Scattered Clouds
3:56 AM 27.0 °F 21.6 °F 16.0 °F 63% 30.16 in 10.0 mi West 4.6 mph - N/A   Clear
4:56 AM 26.1 °F - 17.1 °F 69% 30.17 in 10.0 mi Calm Calm - N/A   Clear
5:56 AM 25.0 °F - 17.1 °F 72% 30.16 in 10.0 mi Calm Calm - N/A   Clear
6:56 AM 26.1 °F - 17.1 °F 69% 30.14 in 9.0 mi Calm Calm - N/A   Clear
7:56 AM 28.0 °F 24.2 °F 19.0 °F 69% 30.14 in 7.0 mi Variable 3.5 mph - N/A   Clear
8:56 AM 32.0 °F 25.6 °F 19.9 °F 61% 30.13 in 8.0 mi SW 6.9 mph - N/A   Clear
9:56 AM 34.0 °F 29.8 °F 21.9 °F 61% 30.12 in 8.0 mi Variable 4.6 mph - N/A   Clear
10:56 AM 37.9 °F 30.9 °F 21.0 °F 51% 30.09 in 10.0 mi SW 10.4 mph - N/A   Clear
11:56 AM 39.9 °F 35.8 °F 21.0 °F 47% 30.06 in 10.0 mi SW 5.8 mph - N/A   Clear
12:56 PM 41.0 °F 35.8 °F 19.9 °F 43% 30.04 in 10.0 mi WSW 8.1 mph - N/A   Clear
1:56 PM 43.0 °F 40.3 °F 21.0 °F 42% 30.02 in 10.0 mi Variable 4.6 mph - N/A   Clear
2:56 PM 43.0 °F 40.3 °F 21.9 °F 43% 30.03 in 10.0 mi Variable 4.6 mph - N/A   Clear
3:56 PM 42.1 °F 40.2 °F 23.0 °F 47% 30.05 in 10.0 mi WSW 3.5 mph - N/A   Mostly Cloudy
4:56 PM 39.0 °F - 24.1 °F 55% 30.07 in 10.0 mi Calm Calm - N/A   Mostly Cloudy
5:56 PM 39.9 °F 36.7 °F 24.1 °F 53% 30.09 in 10.0 mi SW 4.6 mph - N/A   Mostly Cloudy
6:56 PM 39.9 °F 35.1 °F 24.1 °F 53% 30.10 in 10.0 mi West 6.9 mph - N/A   Mostly Cloudy
7:56 PM 41.0 °F 39.0 °F 24.1 °F 51% 30.12 in 10.0 mi WSW 3.5 mph - N/A   Clear
8:56 PM 41.0 °F - 25.0 °F 53% 30.12 in 10.0 mi Calm Calm - N/A   Clear
9:56 PM 41.0 °F 39.0 °F 25.0 °F 53% 30.11 in 10.0 mi West 3.5 mph - N/A   Mostly Cloudy
10:56 PM 37.0 °F 34.5 °F 28.9 °F 73% 30.11 in 10.0 mi WNW 3.5 mph - N/A   Clear
11:56 PM 37.0 °F 34.5 °F 28.9 °F 73% 30.11 in 10.0 mi WNW 3.5 mph - N/A   Clear